CW7453 Bull Run Mountain VA US current weather conditions

sailwx.info

Wind from 288

Air temperature 29.4° C
Dewpoint 24.1° C

Last reported at 2020-Aug-09 19:03 UTC.
Time now 2020-Aug-09 20:09 UTC

Location: N 38°55' W 077°40'.
View on Google Maps.

See reports from other nearby stations

  
Tides and Currents Weather Stations Pressure Air Temp Water Temp Dewpoint Dewpoint Depression Visibility Wind Speed Wind Dir Waves Ship Positions
date/time (UTC)wind fromknots sea level pressurealtimeterstation pressurevisibilityair tempwater tempwave heightnotes
2020-Aug-09 19:03 288 29.4
2020-Aug-09 18:53 288 29.4
2020-Aug-09 18:43 289 29.4
2020-Aug-09 18:33 289 29.4
2020-Aug-09 18:23 288 29.4
2020-Aug-09 18:13 288 30.0
2020-Aug-09 18:03 289 30.0
2020-Aug-09 17:53 289 29.4
2020-Aug-09 17:43 289 28.3
2020-Aug-09 17:33 289 28.3
2020-Aug-09 17:23 289 29.4
2020-Aug-09 17:13 289 30.6
2020-Aug-09 17:03 289 30.6
2020-Aug-09 16:53 288 31.1
2020-Aug-09 16:43 288 30.6
2020-Aug-09 16:33 289 30.6
2020-Aug-09 16:23 288 30.0
2020-Aug-09 16:13 289 30.0
2020-Aug-09 16:03 289 30.0
2020-Aug-09 15:53 289 29.4
2020-Aug-09 15:43 289 28.9
2020-Aug-09 15:33 288 28.3
2020-Aug-09 15:23 289 28.3
2020-Aug-09 15:13 288 28.9
2020-Aug-09 15:03 289 28.3
2020-Aug-09 14:53 289 27.8
2020-Aug-09 14:43 289 27.2
2020-Aug-09 14:33 289 26.1
2020-Aug-09 14:23 288 25.6
2020-Aug-09 14:13 289 26.1
2020-Aug-09 14:03 288 26.1
2020-Aug-09 13:53 288 25.6
2020-Aug-09 13:43 288 25.6
2020-Aug-09 13:33 288 25.0
2020-Aug-09 13:23 288 25.0
2020-Aug-09 13:13 288 25.0
2020-Aug-09 13:03 288 24.4
2020-Aug-09 12:53 288 23.9
2020-Aug-09 12:43 288 23.3
2020-Aug-09 12:33 288 22.8
2020-Aug-09 12:23 288 22.8
2020-Aug-09 12:13 289 22.2
2020-Aug-09 12:03 288 22.2
2020-Aug-09 11:53 288 22.2
2020-Aug-09 11:43 289 21.7
2020-Aug-09 11:33 289 21.7
2020-Aug-09 11:23 289 21.7
2020-Aug-09 11:13 289 21.7
2020-Aug-09 11:03 289 21.7
2020-Aug-09 10:53 288 21.7
2020-Aug-09 10:43 289 21.7
2020-Aug-09 10:33 288 21.7
2020-Aug-09 10:23 288 21.7
2020-Aug-09 10:13 288 21.7
2020-Aug-09 10:03 289 21.7
2020-Aug-09 09:53 288 22.2
2020-Aug-09 09:43 288 22.2
2020-Aug-09 09:33 289 22.2
2020-Aug-09 09:23 288 22.2
2020-Aug-09 09:13 289 21.7
2020-Aug-09 09:03 288 22.2
2020-Aug-09 08:53 288 22.2
2020-Aug-09 08:43 288 22.2
2020-Aug-09 08:33 288 22.2
2020-Aug-09 08:23 288 22.2
2020-Aug-09 08:13 288 22.2
2020-Aug-09 08:03 288 22.2
2020-Aug-09 07:53 288 22.2
2020-Aug-09 07:43 288 22.2
2020-Aug-09 07:33 288 22.2
2020-Aug-09 07:23 288 22.2
2020-Aug-09 07:13 286 22.2
2020-Aug-09 07:03 285 22.2
2020-Aug-09 06:53 286 0 22.2
2020-Aug-09 06:43 285 22.2
2020-Aug-09 06:33 282 22.2
2020-Aug-09 06:23 276 22.8
2020-Aug-09 06:13 272 22.2
2020-Aug-09 06:03 257 22.2
2020-Aug-09 05:53 164 22.2
2020-Aug-09 05:43 165 22.8
2020-Aug-09 05:33 165 22.8
2020-Aug-09 05:23 165 22.2
2020-Aug-09 05:13 165 22.8
2020-Aug-09 05:03 165 22.8
2020-Aug-09 04:53 165 22.8
2020-Aug-09 04:43 165 22.8
2020-Aug-09 04:33 165 22.8
2020-Aug-09 04:23 165 22.8
2020-Aug-09 04:13 165 22.8
2020-Aug-09 04:03 165 22.2
2020-Aug-09 03:53 165 22.2
2020-Aug-09 03:43 165 22.2
2020-Aug-09 03:33 165 22.2
2020-Aug-09 03:23 165 22.8
2020-Aug-09 03:13 165 22.8
2020-Aug-09 03:03 165 22.8
2020-Aug-09 02:53 165 22.8
2020-Aug-09 02:43 165 22.8
2020-Aug-09 02:33 165 22.8
2020-Aug-09 02:23 165 22.2
2020-Aug-09 02:13 165 22.2
2020-Aug-09 02:03 165 22.2
2020-Aug-09 01:53 165 22.2
2020-Aug-09 01:43 165 22.2
2020-Aug-09 01:33 165 22.2
2020-Aug-09 01:23 165 22.2
2020-Aug-09 01:13 165 22.2
2020-Aug-09 01:03 165 22.2
2020-Aug-09 00:53 165 22.2
2020-Aug-09 00:43 165 22.2
2020-Aug-09 00:33 165 22.2
2020-Aug-09 00:23 165 22.2
2020-Aug-09 00:13 165 22.8
2020-Aug-09 00:03 165 22.8
2020-Aug-08 23:53 165 22.8
2020-Aug-08 23:43 165 22.8
2020-Aug-08 23:33 165 22.8
2020-Aug-08 23:23 165 23.3
2020-Aug-08 23:13 165 23.3
2020-Aug-08 23:03 165 23.3
2020-Aug-08 22:53 165 23.3
2020-Aug-08 22:43 165 23.3
2020-Aug-08 22:33 165 23.3
2020-Aug-08 22:23 165 23.9
2020-Aug-08 22:13 165 23.9
2020-Aug-08 22:03 165 23.9
2020-Aug-08 21:53 165 24.4
2020-Aug-08 21:43 165 24.4
2020-Aug-08 21:33 165 24.4
2020-Aug-08 21:23 165 24.4
2020-Aug-08 21:13 165 24.4
2020-Aug-08 21:03 165 25.0
2020-Aug-08 20:53 165 25.0
2020-Aug-08 20:43 165 25.0
2020-Aug-08 20:33 165 25.0
2020-Aug-08 20:23 165 25.0
2020-Aug-08 20:13 165 25.0
2020-Aug-08 20:03 165 25.6
2020-Aug-08 19:53 165 26.1
2020-Aug-08 19:43 165 25.6
2020-Aug-08 19:33 165 25.0
2020-Aug-08 19:23 165 25.0
2020-Aug-08 19:13 165 25.0
2020-Aug-08 19:03 165 24.4
2020-Aug-08 18:53 165 24.4
2020-Aug-08 18:43 165 24.4
2020-Aug-08 18:33 165 24.4
2020-Aug-08 18:23 165 24.4
2020-Aug-08 18:13 165 24.4
2020-Aug-08 18:03 165 23.9
2020-Aug-08 17:53 165 23.3
2020-Aug-08 17:43 165 22.8
2020-Aug-08 17:33 165 22.8
2020-Aug-08 17:23 165 22.8
2020-Aug-08 17:13 165 22.8
2020-Aug-08 17:03 165 22.8
2020-Aug-08 16:53 165 22.8
2020-Aug-08 16:43 165 22.8
2020-Aug-08 16:33 165 22.2
2020-Aug-08 16:23 165 22.2
2020-Aug-08 16:13 165 22.2
2020-Aug-08 16:03 165 22.8
2020-Aug-08 15:53 165 22.2
2020-Aug-08 15:43 165 22.2
2020-Aug-08 15:33 165 22.2
2020-Aug-08 15:23 165 21.7
2020-Aug-08 15:13 165 21.7
2020-Aug-08 15:03 165 21.7
2020-Aug-08 14:53 165 21.7
2020-Aug-08 14:43 165 21.1
2020-Aug-08 14:33 165 21.1
2020-Aug-08 14:23 165 21.1
2020-Aug-08 14:13 165 21.1
2020-Aug-08 14:03 165 21.1
2020-Aug-08 13:53 165 2 21.1
2020-Aug-08 13:43 165 20.6
2020-Aug-08 13:33 165 20.0
2020-Aug-08 13:23 165 20.0
2020-Aug-08 13:13 165 20.0
2020-Aug-08 13:03 165 20.0
2020-Aug-08 12:53 165 20.0
2020-Aug-08 12:43 165 20.0
2020-Aug-08 12:33 165 20.0
2020-Aug-08 12:23 165 19.4
2020-Aug-08 12:13 165 19.4
2020-Aug-08 12:03 164 19.4
2020-Aug-08 11:53 164 19.4
2020-Aug-08 11:43 164 19.4
2020-Aug-08 11:33 164 19.4
2020-Aug-08 11:23 164 18.9
2020-Aug-08 11:13 159 18.9
2020-Aug-08 11:03 159 18.9
2020-Aug-08 10:53 159 19.4
2020-Aug-08 10:43 159 19.4
2020-Aug-08 10:33 159 19.4
2020-Aug-08 10:23 159 19.4
2020-Aug-08 10:13 159 19.4
2020-Aug-08 10:03 159 19.4
2020-Aug-08 09:53 159 19.4
2020-Aug-08 09:43 159 19.4
2020-Aug-08 09:33 159 19.4
2020-Aug-08 09:23 159 19.4
2020-Aug-08 09:13 159 19.4
2020-Aug-08 09:03 159 19.4
2020-Aug-08 08:53 159 19.4
2020-Aug-08 08:43 159 19.4
2020-Aug-08 08:33 159 19.4
2020-Aug-08 08:23 159 19.4
2020-Aug-08 08:13 159 19.4
2020-Aug-08 08:03 159 20.0
2020-Aug-08 07:53 159 20.0
2020-Aug-08 07:43 159 20.0
2020-Aug-08 07:33 159 20.0
2020-Aug-08 07:23 159 20.0
2020-Aug-08 07:13 159 20.0
2020-Aug-08 07:03 159 20.0
2020-Aug-08 06:53 159 20.0
2020-Aug-08 06:43 159 20.0
2020-Aug-08 06:35 159 20.0
2020-Aug-08 06:23 159 20.6
2020-Aug-08 06:13 159 20.6
2020-Aug-08 06:03 159 20.6
2020-Aug-08 05:53 159 20.6
2020-Aug-08 05:43 159 20.6
2020-Aug-08 05:33 159 20.6
2020-Aug-08 05:23 159 20.6
2020-Aug-08 05:13 159 20.6
2020-Aug-08 05:03 159 20.6
2020-Aug-08 04:53 159 20.6
2020-Aug-08 04:43 159 20.6
2020-Aug-08 04:33 159 20.6
2020-Aug-08 04:23 159 20.6
2020-Aug-08 04:13 159 20.6
2020-Aug-08 04:03 159 3 20.6
2020-Aug-08 03:53 158 2 20.6
2020-Aug-08 03:43 157 20.6
2020-Aug-08 03:33 157 20.6
2020-Aug-08 03:23 157 0 20.6
2020-Aug-08 03:13 157 20.6
2020-Aug-08 03:03 157 21.1
2020-Aug-08 02:53 148 21.1
2020-Aug-08 02:43 148 21.1
2020-Aug-08 02:33 148 21.1
2020-Aug-08 02:23 138 21.7
2020-Aug-08 02:13 137 21.7
2020-Aug-08 02:03 137 21.7
2020-Aug-08 01:53 130 22.2
2020-Aug-08 01:43 128 22.2
2020-Aug-08 01:33 128 22.8
2020-Aug-08 01:23 128 22.8
2020-Aug-08 01:13 128 22.8
2020-Aug-08 01:03 128 22.8
2020-Aug-08 00:53 128 22.8
2020-Aug-08 00:43 128 22.8
2020-Aug-08 00:33 128 23.3
2020-Aug-08 00:23 128 23.3
2020-Aug-08 00:13 128 23.3
2020-Aug-08 00:03 128 23.3
2020-Aug-07 23:53 128 23.9
2020-Aug-07 23:43 128 23.9
2020-Aug-07 23:33 128 23.9
2020-Aug-07 23:23 128 23.9
2020-Aug-07 23:13 127 24.4
2020-Aug-07 23:03 128 24.4
2020-Aug-07 22:53 128 24.4
2020-Aug-07 22:43 128 24.4
2020-Aug-07 22:33 128 24.4
2020-Aug-07 22:23 128 25.0
2020-Aug-07 22:13 128 25.0
2020-Aug-07 22:03 128 25.6
2020-Aug-07 21:53 128 25.6
2020-Aug-07 21:43 128 25.6
2020-Aug-07 21:33 128 25.6
2020-Aug-07 21:23 128 25.6
2020-Aug-07 21:13 128 25.0
2020-Aug-07 21:03 128 25.6
2020-Aug-07 20:53 128 25.6
2020-Aug-07 20:43 128 25.6
2020-Aug-07 20:33 128 25.6
2020-Aug-07 20:23 128 25.6
2020-Aug-07 20:13 128 25.6
2020-Aug-07 20:03 128 26.1